Regional Weather Roundup
Issued by NWS Huntsville, AL

Home | Current Version | Previous Version | Text Only | Print | Product List | Glossary On
Versions: 1 2 3 4 5 6 7 8 9 10 11 12 13 14 15 16 17 18 19 20 21 22 23 24 25 26 27 28 29 30 31 32 33 34 35 36 37 38 39 40 41 42 43 44 45 46 47 48 49 50
000
ASUS44 KHUN 020910
RWRHUN

WEATHER ROUNDUP FOR THE TENNESSEE VALLEY
NATIONAL WEATHER SERVICE HUNTSVILLE AL
400 AM CDT TUE JUN 02 2015

ALZ001>004-021000-
NORTHWEST ALABAMA

CITY           SKY/WX    TMP DP  RH WIND       PRES   REMARKS
COURTLAND HCN    N/A     64 N/A N/A CALM        N/A
RUSSELLVILLE     N/A     61 N/A N/A MISG        N/A
SHOALS AIRPORT MOCLDY    64  60  87 CALM      30.05S
SHOALS TVA RES   N/A     63 N/A N/A MISG        N/A
$$

ALZ005>007-016-021000-
NORTH CENTRAL ALABAMA

CITY           SKY/WX    TMP DP  RH WIND       PRES   REMARKS
CULLMAN AG STN   N/A     63 N/A N/A N3          N/A
DECATUR AP     CLOUDY    65  63  93 NW3       30.04S
HUNTSVILLE AP  CLEAR     64  61  90 CALM      30.03S FOG
HUN NWS/UAH      N/A     64  61  88 N2          N/A
MERIDIANVILLE  CLOUDY    63  59  88 N3        30.04R
REDSTONE ARSN  MOCLDY    62  61  97 NE1       30.02S
VINEMONT AP      N/A     62  61  97 CALM      30.05S FOG
$$

ALZ008>010-021000-
NORTHEAST ALABAMA

CITY           SKY/WX    TMP DP  RH WIND       PRES   REMARKS
ALBERTVILLE    MOCLDY    63  63 100 CALM      30.02S
FORT PAYNE     PTCLDY    59  57  94 CALM      30.02S FOG
SCOTTSBORO HCN   N/A     61 N/A N/A MISG        N/A
VALLEY HEAD      N/A     61 N/A N/A MISG        N/A
$$

TNZ076-096-097-021000-
SOUTHEASTERN MIDDLE TENNESSEE

CITY           SKY/WX    TMP DP  RH WIND       PRES   REMARKS
TULLAHOMA      CLOUDY    61  61 100 NW3       30.05S
WINCHESTER     CLOUDY    64  63  94 VRB5      30.04R
$$

...SURROUNDING SITES...

CITY           SKY/WX    TMP DP  RH WIND       PRES   REMARKS
ATLANTA        CLOUDY    68  65  90 NW6       30.02R
ANNISTON       CLOUDY    65  63  93 CALM      30.02S
BIRMINGHAM     CLEAR     65  64  97 CALM      30.04S
CHATTANOOGA    PTCLDY    65  62  90 CALM      30.02R
CORINTH        FAIR      63  61  94 W3        30.05R FOG
DALTON         CLOUDY    63  63 100 CALM      30.02S
GADSDEN        MOCLDY   N/A N/A N/A CALM      30.01S VSB<1/4
GOLDEN TRNGL   CLEAR     63  59  88 NW3       30.03S
HALEYVILLE     CLOUDY    61  61 100 CALM      30.06F FOG
JACKSON TN     CLOUDY    63  60  90 NE5       30.06S
LEWISBURG      CLOUDY    62  60  93 N5        30.04F
MEMPHIS        PTCLDY    60  58  92 N3        30.07S FOG
NASHVILLE      CLOUDY    62  59  90 N7        30.06S
OXFORD MS      FAIR      57  55  94 CALM      30.08S
ROME           CLOUDY    65  64  97 CALM      30.01S
SAVANNAH       CLOUDY    57  32  38 CALM      30.06R
TUPELO         CLEAR     62  60  93 CALM      30.04F
TUSCALOOSA     CLEAR     65  63  93 N3        30.01F
$$

...GULF COAST WEATHER...

CITY           SKY/WX    TMP DP  RH WIND       PRES   REMARKS
GULFPORT       CLOUDY    72  69  90 CALM      29.98S
PASCAGOULA     CLOUDY    71  70  96 CALM      29.99R
MOBILE         FOG       70  70 100 N3        29.99S VSB 1/2
GULF SHORES    PTSUNNY   71  70  99 N3        29.97F
PENSACOLA      MOCLDY    72  70  93 NW5       29.97S
DESTIN         PTCLDY    75  72  90 NE6       29.98R
PANAMA CITY    PTCLDY    70  69  96 E3        29.97F
APPALACHICOLA  CLOUDY    74  70  87 NE3       29.97F
$$



USA.gov is the U.S. government's official web portal to all federal, state and local government web resources and services.